1483394400.09,23904,10.25,72362.8,-15.83,-16.79,-16.75,0,*6F
1483394401.31,23905,10.25,72364.8,-15.83,-16.79,-16.75,0,*6E
1483394402.53,23906,10.25,72360.0,-15.83,-16.75,-16.75,0,*61
1483394403.76,23907,10.25,72358.5,-15.83,-16.75,-16.75,0,*60
1483394405.0,23908,10.25,72354.3,-15.83,-16.75,-16.69,0,*62
1483394406.24,23909,10.25,72348.0,-15.83,-16.75,-16.69,0,*63
1483394407.46,23910,10.25,72344.5,-15.83,-16.75,-16.75,0,*66
1483394408.69,23911,10.25,72340.3,-15.83,-16.75,-16.75,0,*67
1483394409.94,23912,10.25,72350.0,-15.85,-16.79,-16.75,0,*6E
1483394411.15,23913,10.25,72348.8,-15.83,-16.89,-16.89,0,*65
1483394412.39,23914,10.25,72344.3,-15.83,-17.03,-16.89,0,*61
1483394413.6,23915,10.25,72348.5,-15.83,-16.93,-16.89,0,*68
1483394414.84,23916,10.25,72332.8,-15.85,-16.89,-16.79,0,*69
1483394416.08,23917,10.25,72320.0,-15.83,-16.79,-16.69,0,*60
1483394417.34,23918,10.25,72324.3,-15.85,-16.75,-16.75,0,*68
1483394418.63,23919,10.25,72338.3,-15.85,-16.69,-16.69,0,*69
1483394419.89,23920,10.25,72342.8,-15.85,-16.59,-16.59,0,*63
1483394421.13,23921,10.25,72330.5,-15.85,-16.59,-16.55,0,*6E
1483394422.39,23922,10.25,72344.3,-15.85,-16.59,-16.59,0,*61
1483394423.64,23923,10.25,72344.5,-15.85,-16.55,-16.55,0,*60
1483394424.86,23924,10.25,72344.8,-15.83,-16.55,-16.55,0,*61
1483394426.1,23925,10.25,72364.5,-15.85,-16.55,-16.45,0,*67
1483394427.32,23926,10.25,72368.8,-15.83,-16.55,-16.45,0,*62
1483394428.57,23927,10.25,72364.0,-15.85,-16.55,-16.55,0,*64
1483394429.81,23928,10.25,72362.5,-15.83,-16.59,-16.69,0,*6E
1483394431.06,23929,10.25,72362.5,-15.83,-16.69,-16.75,0,*61
1483394432.35,23930,10.25,72372.3,-15.85,-16.69,-16.69,0,*62
1483394433.6,23931,10.25,72368.3,-15.85,-16.75,-16.75,0,*63
1483394434.85,23932,10.25,72356.8,-15.85,-16.89,-16.89,0,*60
1483394436.08,23933,10.25,72356.0,-15.85,-16.93,-16.89,0,*6A
1483394437.32,23934,10.25,72362.0,-15.85,-16.93,-16.93,0,*66
1483394438.56,23935,10.25,72358.0,-15.85,-16.93,-16.93,0,*67
1483394439.8,23936,10.25,72364.3,-15.85,-16.89,-16.79,0,*6B
1483394441.05,23937,10.25,72360.8,-15.85,-16.79,-16.79,0,*65
1483394442.3,23938,10.25,72366.5,-15.85,-16.89,-16.79,0,*65
1483394443.52,23939,10.25,72368.3,-15.83,-16.79,-16.79,0,*6D
1483394444.76,23940,10.25,72366.3,-15.85,-16.89,-16.79,0,*6A
1483394446.01,23941,10.25,72360.3,-15.85,-16.89,-16.79,0,*6B
1483394447.26,23942,10.25,72366.8,-15.85,-16.79,-16.79,0,*67
1483394448.51,23943,10.25,72370.5,-15.85,-16.79,-16.79,0,*66
1483394449.75,23944,10.25,72370.5,-15.85,-16.89,-16.79,0,*6E
1483394450.99,23945,10.25,72364.0,-15.89,-16.93,-16.97,0,*68
1483394452.22,23946,10.25,72362.3,-15.89,-16.93,-16.83,0,*6E
1483394453.47,23947,10.25,72352.0,-15.85,-16.79,-16.79,0,*62
1483394454.72,23948,10.25,72352.5,-15.85,-16.79,-16.79,0,*6D
1483394455.96,23949,10.25,72352.0,-15.89,-16.83,-16.83,0,*60
1483394457.21,23950,10.25,72354.5,-15.85,-16.79,-16.79,0,*64
1483394458.45,23951,10.25,72356.3,-15.89,-16.83,-16.83,0,*69
1483394459.69,23952,10.25,72352.3,-15.89,-16.83,-16.79,0,*6F
1483394460.93,23953,10.25,72350.8,-15.89,-16.79,-16.75,0,*67
1483394462.18,23954,10.25,72352.8,-15.89,-16.75,-16.75,0,*6C
1483394463.42,23955,10.25,72350.8,-15.89,-16.75,-16.75,0,*6D
1483394464.66,23956,10.25,72350.8,-15.89,-16.75,-16.79,0,*62
1483394465.91,23957,10.25,72360.5,-15.89,-16.75,-16.75,0,*6F
1483394467.18,23958,10.25,72360.0,-15.89,-16.65,-16.75,0,*61
1483394468.45,23959,10.25,72364.0,-15.89,-16.75,-16.65,0,*60
1483394469.69,23960,10.25,72360.3,-15.89,-16.75,-16.59,0,*65
1483394470.98,23961,10.25,72358.0,-15.89,-16.65,-16.65,0,*6A
1483394472.25,23962,10.25,72358.0,-15.89,-16.65,-16.75,0,*68
1483394473.5,23963,10.25,72352.5,-15.89,-16.75,-16.75,0,*68
1483394474.76,23964,10.25,72354.3,-15.89,-16.75,-16.65,0,*6E
1483394476.03,23965,10.25,72352.3,-15.89,-16.65,-16.75,0,*6F
1483394477.26,23966,10.25,72352.8,-15.91,-16.59,-16.75,0,*6A
1483394478.52,23967,10.25,72354.0,-15.89,-16.75,-16.65,0,*6D
1483394479.78,23968,10.25,72356.8,-15.89,-16.59,-16.65,0,*6C
1483394481.05,23969,10.25,72356.5,-15.89,-16.59,-16.51,0,*6A
1483394482.34,23970,10.25,72358.5,-15.89,-16.65,-16.65,0,*6A
1483394483.61,23971,10.25,72354.3,-15.89,-16.65,-16.59,0,*64
1483394484.9,23972,10.25,72356.5,-15.89,-16.65,-16.65,0,*68
1483394486.14,23973,10.25,72354.3,-15.89,-16.75,-16.75,0,*69
1483394487.38,23974,10.25,72352.0,-15.89,-16.75,-16.79,0,*62
1483394488.63,23975,10.25,72356.8,-15.89,-16.75,-16.75,0,*6F
1483394489.87,23976,10.25,72358.0,-15.89,-16.75,-16.75,0,*6C
1483394491.12,23977,10.25,72354.8,-15.89,-16.75,-16.59,0,*63
1483394492.38,23978,10.25,72356.0,-15.89,-16.59,-16.65,0,*6D
1483394493.67,23979,10.25,72352.5,-15.89,-16.65,-16.65,0,*63
1483394494.9,23980,10.25,72344.0,-15.91,-16.59,-16.59,0,*6C
1483394496.14,23981,10.25,72348.8,-15.89,-16.59,-16.59,0,*64
1483394497.4,23982,10.25,72350.8,-15.89,-16.59,-16.51,0,*6F
1483394498.65,23983,10.25,72354.8,-15.89,-16.59,-16.59,0,*66
1483394499.91,23984,10.25,72360.0,-15.89,-16.59,-16.65,0,*6E
1483394501.14,23985,10.25,72362.0,-15.89,-16.59,-16.45,0,*6D
1483394502.39,23986,10.25,72360.5,-15.85,-16.45,-16.41,0,*6B
1483394503.65,23987,10.25,72366.5,-15.91,-16.51,-16.51,0,*6B
1483394504.94,23988,10.25,72368.8,-15.89,-16.51,-16.51,0,*6D
1483394506.22,23989,10.25,72360.5,-15.89,-16.51,-16.51,0,*6C
1483394507.47,23990,10.25,72362.3,-15.85,-16.45,-16.41,0,*6C
1483394508.7,23991,10.25,72366.8,-15.89,-16.45,-16.45,0,*65
1483394509.98,23992,10.25,72364.3,-15.89,-16.51,-16.51,0,*66
1483394511.27,23993,10.25,72364.5,-15.89,-16.51,-16.51,0,*67
1483394512.55,23994,10.25,72364.3,-15.89,-16.51,-16.51,0,*60
1483394513.8,23995,10.25,72370.8,-15.85,-16.41,-16.41,0,*6D
1483394515.02,23996,10.25,72368.3,-15.83,-16.41,-16.41,0,*68
1483394516.27,23997,10.25,72370.8,-15.85,-16.45,-16.41,0,*6B
1483394517.52,23998,10.25,72370.8,-15.85,-16.41,-16.41,0,*60
1483394518.76,23999,10.25,72374.0,-15.85,-16.45,-16.45,0,*61
1483394520.0,24000,10.25,72372.0,-15.85,-16.45,-16.41,0,*6B
1483394521.26,24001,10.25,72368.5,-15.85,-16.55,-16.55,0,*6E
1483394522.51,24002,10.25,72366.3,-15.85,-16.59,-16.59,0,*6D
1483394523.78,24003,10.25,72366.8,-15.85,-16.69,-16.59,0,*6F
1483394525.04,24004,10.25,72360.8,-15.85,-16.59,-16.59,0,*6B
1483394526.29,24005,10.25,72356.3,-15.85,-16.59,-16.59,0,*6A
1483394527.55,24006,10.25,72362.8,-15.83,-16.69,-16.69,0,*6F
1483394528.85,24007,10.25,72350.5,-15.85,-16.69,-16.69,0,*68
1483394530.15,24008,10.25,72354.8,-15.85,-16.69,-16.69,0,*67
1483394531.4,24009,10.25,72340.8,-15.85,-16.75,-16.75,0,*66
1483394532.65,24010,10.25,72334.3,-15.85,-16.75,-16.75,0,*6E
1483394533.9,24011,10.25,72342.3,-15.85,-16.75,-16.75,0,*6F
1483394535.16,24012,10.25,72348.3,-15.85,-16.79,-16.75,0,*60
1483394536.4,24013,10.25,72358.8,-15.85,-16.79,-16.79,0,*6D
1483394537.68,24014,10.25,72358.0,-15.85,-16.79,-16.69,0,*6B
1483394538.93,24015,10.25,72336.3,-15.85,-16.79,-16.75,0,*67
1483394540.16,24016,10.25,72330.5,-15.89,-16.93,-16.93,0,*64
1483394541.37,24017,10.25,72326.3,-15.91,-16.97,-16.93,0,*68
1483394542.6,24018,10.25,72322.0,-15.89,-16.97,-16.97,0,*6A
1483394543.84,24019,10.25,72318.3,-15.89,-16.93,-16.83,0,*6A
1483394545.08,24020,10.25,72316.3,-15.89,-16.83,-16.79,0,*64
1483394546.3,24021,10.25,72330.0,-15.91,-16.79,-16.75,0,*65
1483394547.57,24022,10.25,72330.8,-15.91,-16.65,-16.65,0,*6A
1483394548.82,24023,10.25,72326.0,-15.89,-16.75,-16.59,0,*6C
1483394550.09,24024,10.25,72332.0,-15.91,-16.65,-16.65,0,*6C
1483394551.36,24025,10.25,72334.0,-15.89,-16.65,-16.59,0,*6B
1483394552.65,24026,10.25,72342.5,-15.89,-16.65,-16.65,0,*67
1483394553.92,24027,10.25,72344.3,-15.91,-16.65,-16.65,0,*6F
1483394555.16,24028,10.25,72332.8,-15.89,-16.59,-16.59,0,*69
1483394556.41,24029,10.25,72346.3,-15.91,-16.65,-16.59,0,*6E
1483394557.66,24030,10.25,72342.8,-15.89,-16.59,-16.59,0,*60
1483394558.92,24031,10.25,72348.3,-15.89,-16.59,-16.51,0,*69
1483394560.16,24032,10.25,72342.0,-15.89,-16.59,-16.59,0,*62
1483394561.43,24033,10.25,72336.3,-15.91,-16.65,-16.65,0,*6A
1483394562.7,24034,10.25,72338.5,-15.89,-16.59,-16.65,0,*6B
1483394563.95,24035,10.25,72336.8,-15.85,-16.55,-16.55,0,*69
1483394565.22,24036,10.25,72338.8,-15.89,-16.65,-16.59,0,*69
1483394566.46,24037,10.25,72342.5,-15.89,-16.59,-16.59,0,*67
1483394567.73,24038,10.25,72336.8,-15.89,-16.65,-16.59,0,*67
1483394569.0,24039,10.25,72336.0,-15.89,-16.65,-16.59,0,*66
1483394570.25,24040,10.25,72332.0,-15.91,-16.59,-16.65,0,*61
1483394571.49,24041,10.25,72324.3,-15.89,-16.59,-16.59,0,*66
1483394572.74,24042,10.25,72340.3,-15.89,-16.59,-16.59,0,*65
1483394573.98,24043,10.25,72334.3,-15.89,-16.59,-16.59,0,*64
1483394575.22,24044,10.25,72342.0,-15.89,-16.59,-16.59,0,*63
1483394576.48,24045,10.25,72340.8,-15.89,-16.59,-16.51,0,*6A
1483394577.75,24046,10.25,72342.5,-15.89,-16.59,-16.51,0,*69
1483394579.0,24047,10.25,72338.0,-15.85,-16.55,-16.55,0,*6C
1483394580.25,24048,10.25,72334.3,-15.85,-16.55,-16.55,0,*63
1483394581.49,24049,10.25,72338.5,-15.85,-16.55,-16.45,0,*63
1483394582.74,24050,10.25,72340.0,-15.85,-16.45,-16.41,0,*6E
1483394583.95,24051,10.25,72344.3,-15.83,-16.45,-16.45,0,*6D
1483394585.19,24052,10.25,72342.3,-15.85,-16.45,-16.45,0,*68
1483394586.47,24053,10.25,72336.5,-15.89,-16.51,-16.51,0,*65
1483394587.76,24054,10.25,72346.3,-15.89,-16.51,-16.51,0,*62
1483394589.04,24055,10.25,72344.0,-15.89,-16.51,-16.51,0,*63
1483394590.28,24056,10.25,72342.0,-15.85,-16.45,-16.45,0,*6C
1483394591.53,24057,10.25,72342.5,-15.85,-16.45,-16.41,0,*69
1483394592.78,24058,10.25,72340.5,-15.85,-16.55,-16.55,0,*62
1483394594.02,24059,10.25,72344.8,-15.85,-16.45,-16.41,0,*67
1483394595.31,24060,10.25,72350.0,-15.89,-16.51,-16.51,0,*65
1483394596.55,24061,10.25,72342.5,-15.85,-16.45,-16.45,0,*68
1483394597.79,24062,10.25,72346.5,-15.85,-16.45,-16.45,0,*6B
1483394599.04,24063,10.25,72342.5,-15.85,-16.45,-16.55,0,*6B
1483394600.28,24064,10.25,72352.0,-15.85,-16.45,-16.45,0,*6D
1483394601.52,24065,10.25,72356.3,-15.85,-16.45,-16.45,0,*6C
1483394602.76,24066,10.25,72354.8,-15.85,-16.55,-16.45,0,*6E
1483394604.01,24067,10.25,72358.5,-15.85,-16.55,-16.55,0,*6E
1483394605.26,24068,10.25,72362.0,-15.85,-16.55,-16.55,0,*61
1483394606.5,24069,10.25,72360.0,-15.85,-16.45,-16.45,0,*60
1483394607.74,24070,10.25,72366.8,-15.85,-16.45,-16.45,0,*68
1483394608.98,24071,10.25,72368.3,-15.85,-16.45,-16.45,0,*69
1483394610.23,24072,10.19,72366.3,-15.85,-16.41,-16.41,0,*6A
1483394611.48,24073,10.25,72364.8,-15.85,-16.45,-16.41,0,*6F
1483394612.73,24074,10.25,72364.3,-15.85,-16.41,-16.55,0,*69
1483394613.98,24075,10.25,72364.0,-15.85,-16.45,-16.41,0,*69
1483394615.22,24076,10.25,72366.8,-15.85,-16.45,-16.41,0,*6A
1483394616.47,24077,10.25,72368.5,-15.85,-16.41,-16.45,0,*6B
1483394617.72,24078,10.19,72372.5,-15.85,-16.45,-16.41,0,*64
1483394618.96,24079,10.25,72376.0,-15.85,-16.41,-16.45,0,*65
1483394620.17,24080,10.25,72376.3,-15.83,-16.55,-16.45,0,*60
1483394621.42,24081,10.25,72378.5,-15.85,-16.59,-16.55,0,*6A
1483394622.64,24082,10.25,72382.0,-15.83,-16.59,-16.55,0,*6F
1483394623.89,24083,10.25,72380.8,-15.85,-16.59,-16.55,0,*68
1483394625.11,24084,10.25,72380.5,-15.83,-16.55,-16.59,0,*69
1483394626.36,24085,10.25,72382.3,-15.85,-16.55,-16.55,0,*62
1483394627.58,24086,10.25,72380.8,-15.83,-16.59,-16.55,0,*6B
1483394628.84,24087,10.25,72378.5,-15.85,-16.55,-16.59,0,*6C
1483394630.09,24088,10.25,72368.5,-15.85,-16.59,-16.59,0,*6F
1483394631.34,24089,10.25,72364.5,-15.85,-16.59,-16.59,0,*6E
1483394632.59,24090,10.25,72364.8,-15.85,-16.55,-16.55,0,*66
1483394633.84,24091,10.25,72368.5,-15.85,-16.59,-16.59,0,*67
1483394635.09,24092,10.25,72372.0,-15.85,-16.55,-16.55,0,*64
1483394636.34,24093,10.25,72374.3,-15.85,-16.59,-16.45,0,*68
1483394637.59,24094,10.25,72376.8,-15.85,-16.55,-16.59,0,*6E
1483394638.84,24095,10.25,72376.0,-15.85,-16.59,-16.55,0,*6F
1483394640.09,24096,10.25,72370.8,-15.85,-16.59,-16.59,0,*60
1483394641.36,24097,10.25,72364.8,-15.83,-16.69,-16.69,0,*67
1483394642.63,24098,10.25,72360.3,-15.85,-16.75,-16.69,0,*63
1483394643.88,24099,10.25,72362.0,-15.85,-16.75,-16.75,0,*6F
1483394645.13,24100,10.25,72366.5,-15.85,-16.79,-16.75,0,*62
1483394646.39,24101,10.25,72364.3,-15.85,-16.75,-16.75,0,*6F
1483394647.64,24102,10.25,72368.0,-15.85,-16.79,-16.75,0,*60
1483394648.89,24103,10.25,72364.8,-15.85,-16.79,-16.75,0,*61
1483394650.13,24104,10.25,72364.0,-15.89,-16.83,-16.79,0,*63
1483394651.37,24105,10.25,72366.8,-15.89,-16.83,-16.79,0,*62
1483394652.61,24106,10.25,72372.5,-15.89,-16.93,-16.79,0,*60
1483394653.85,24107,10.25,72382.0,-15.89,-16.83,-16.79,0,*60
1483394655.09,24108,10.25,72374.8,-15.89,-16.83,-16.79,0,*6F
1483394656.33,24109,10.25,72368.0,-15.89,-16.83,-16.79,0,*6E
1483394657.57,24110,10.25,72362.5,-15.89,-16.83,-16.93,0,*62
1483394658.8,24111,10.25,72360.3,-15.89,-16.93,-16.83,0,*63
1483394660.05,24112,10.25,72358.0,-15.85,-16.89,-16.83,0,*67
1483394661.29,24113,10.25,72360.5,-15.89,-16.83,-16.83,0,*60
1483394662.53,24114,10.25,72366.0,-15.89,-16.83,-16.83,0,*67
1483394663.77,24115,10.25,72358.5,-15.89,-16.83,-16.83,0,*66
1483394664.99,24116,10.25,72354.8,-15.91,-16.83,-16.83,0,*6C
1483394666.23,24117,10.25,72354.8,-15.89,-16.83,-16.83,0,*64
1483394667.48,24118,10.25,72354.8,-15.89,-16.83,-16.83,0,*6B
1483394668.72,24119,10.25,72356.0,-15.85,-16.79,-16.79,0,*66
1483394669.97,24120,10.25,72356.5,-15.89,-16.83,-16.83,0,*60
1483394671.19,24121,10.19,72362.5,-15.91,-16.83,-16.83,0,*68
1483394672.41,24122,10.19,72360.3,-15.91,-16.83,-16.83,0,*6B
1483394673.63,24123,10.25,72360.8,-15.91,-16.83,-16.83,0,*6A
1483394674.85,24124,10.25,72356.8,-15.91,-16.83,-16.83,0,*6D
1483394676.09,24125,10.25,72358.5,-15.89,-16.83,-16.83,0,*65
1483394677.32,24126,10.25,72356.5,-15.89,-16.93,-16.93,0,*66
1483394678.55,24127,10.25,72358.5,-15.89,-16.93,-16.83,0,*66
1483394679.77,24128,10.25,72360.0,-15.91,-16.97,-16.97,0,*61
1483394680.98,24129,10.25,72356.3,-15.91,-16.97,-16.97,0,*60
1483394682.19,24130,10.25,72354.3,-15.91,-16.93,-16.93,0,*68
1483394683.46,24131,10.25,72358.5,-15.93,-17.03,-16.97,0,*67
1483394684.73,24132,10.25,72358.8,-15.93,-17.03,-16.89,0,*6B
1483394685.97,24133,10.25,72354.5,-15.93,-16.97,-16.89,0,*66
1483394687.21,24134,10.25,72354.0,-15.93,-16.97,-16.97,0,*6E
1483394688.45,24135,10.25,72342.0,-15.93,-16.97,-16.97,0,*6F
1483394689.72,24136,10.25,72348.0,-15.95,-17.11,-17.11,0,*6A
1483394691.01,24137,10.25,72354.3,-15.93,-17.11,-17.03,0,*6E
1483394692.31,24138,10.25,72350.8,-15.93,-17.03,-17.11,0,*61
1483394693.58,24139,10.25,72348.3,-15.93,-17.03,-16.97,0,*6F
1483394694.79,24140,10.25,72344.5,-15.95,-16.97,-16.97,0,*6B
1483394696.01,24141,10.25,72340.3,-15.95,-16.89,-16.89,0,*6A
1483394697.22,24142,10.25,72334.5,-15.95,-16.97,-16.89,0,*66
1483394698.46,24143,10.25,72324.8,-15.93,-16.89,-16.89,0,*6E
1483394699.67,24144,10.25,72322.3,-15.95,-16.89,-16.89,0,*6F
1483394700.89,24145,10.25,72338.0,-15.95,-16.97,-16.89,0,*61
1483394702.1,24146,10.25,72346.0,-15.95,-16.97,-16.89,0,*62
1483394703.32,24147,10.25,72342.0,-15.95,-16.89,-16.89,0,*6C
1483394704.53,24148,10.25,72346.5,-15.95,-16.97,-16.97,0,*63
1483394705.75,24149,10.19,72348.0,-15.95,-16.97,-16.89,0,*6D
1483394706.96,24150,10.25,72340.8,-15.95,-16.97,-16.97,0,*6A
1483394708.2,24151,10.25,72350.8,-15.93,-16.97,-16.89,0,*62
1483394709.44,24152,10.19,72348.0,-15.93,-16.97,-16.97,0,*6E
1483394710.74,24153,10.25,72350.0,-15.93,-17.11,-17.11,0,*6F
1483394712.03,24154,10.25,72342.5,-15.97,-17.17,-17.17,0,*6C
1483394713.32,24155,10.19,72332.3,-15.97,-17.21,-17.17,0,*68
1483394714.62,24156,10.19,72328.8,-15.97,-17.17,-17.07,0,*6F
1483394715.86,24157,10.25,72346.8,-15.97,-16.93,-16.93,0,*6F
1483394717.09,24158,10.25,72338.8,-15.97,-16.89,-16.89,0,*60
1483394718.34,24159,10.25,72340.3,-15.97,-16.83,-16.83,0,*61
1483394719.58,24160,10.25,72346.8,-15.97,-16.83,-16.83,0,*6B
1483394720.81,24161,10.25,72348.3,-15.95,-16.89,-16.75,0,*6B
1483394722.05,24162,10.25,72354.0,-15.97,-16.83,-16.75,0,*60
1483394723.3,24163,10.25,72358.5,-15.97,-16.75,-16.83,0,*61
1483394724.55,24164,10.25,72370.0,-15.97,-16.75,-16.75,0,*6F
1483394725.77,24165,10.25,72360.8,-15.95,-16.83,-16.83,0,*6C
1483394726.99,24166,10.25,72362.3,-15.95,-16.83,-16.79,0,*6A
1483394728.23,24167,10.19,72360.8,-15.95,-16.79,-16.69,0,*6F
1483394729.48,24168,10.25,72364.5,-15.95,-16.79,-16.69,0,*60
1483394730.72,24169,10.25,72370.0,-15.95,-16.79,-16.65,0,*6D
1483394731.99,24170,10.25,72364.3,-15.95,-16.65,-16.69,0,*64
1483394733.24,24171,10.25,72364.0,-15.95,-16.69,-16.79,0,*68
1483394734.48,24172,10.25,72376.8,-15.95,-16.69,-16.79,0,*6B
1483394735.78,24173,10.25,72370.5,-15.93,-16.69,-16.69,0,*6D
1483394737.0,24174,10.19,72366.8,-15.95,-16.83,-16.83,0,*6C
1483394738.23,24175,10.25,72368.5,-15.97,-16.89,-16.89,0,*6F
1483394739.48,24176,10.25,72368.8,-15.97,-16.83,-16.83,0,*6C
1483394740.72,24177,10.25,72366.3,-15.97,-16.83,-16.83,0,*6D
1483394741.97,24178,10.25,72372.3,-15.97,-16.83,-16.75,0,*6B
1483394743.22,24179,10.25,72368.0,-15.95,-16.79,-16.69,0,*60
1483394744.44,24180,10.25,72372.5,-15.95,-16.79,-16.79,0,*67
1483394745.66,24181,10.25,72374.3,-15.95,-16.83,-16.79,0,*63
1483394746.88,24182,10.25,72374.0,-15.95,-16.83,-16.83,0,*65
1483394748.11,24183,10.25,72372.8,-15.97,-16.89,-16.89,0,*66
1483394749.35,24184,10.25,72360.3,-15.97,-16.93,-16.93,0,*61
1483394750.56,24185,10.25,72354.8,-15.95,-16.97,-16.89,0,*6D
1483394751.79,24186,10.25,72354.8,-15.97,-16.93,-16.93,0,*63
1483394753.03,24187,10.25,72354.5,-15.97,-16.93,-16.93,0,*62
1483394754.26,24188,10.25,72342.5,-15.97,-16.93,-16.93,0,*6D
1483394755.55,24189,10.25,72344.0,-15.97,-17.03,-17.03,0,*6C
1483394756.79,24190,10.25,72344.8,-15.97,-16.93,-16.93,0,*64
1483394758.09,24191,10.25,72346.0,-15.97,-17.17,-17.07,0,*64
1483394759.38,24192,10.25,72354.3,-15.97,-17.03,-17.03,0,*66
1483394760.59,24193,10.25,72356.0,-15.99,-16.93,-16.93,0,*69
1483394761.83,24194,10.25,72356.5,-15.97,-16.93,-16.93,0,*60
1483394763.06,24195,10.25,72352.3,-15.97,-16.93,-16.93,0,*61
1483394764.3,24196,10.19,72350.3,-15.99,-17.03,-16.93,0,*64
1483394765.53,24197,10.19,72358.3,-15.97,-16.93,-16.93,0,*63
1483394766.74,24198,10.19,72366.0,-15.99,-16.93,-16.93,0,*62
1483394767.98,24199,10.19,72364.0,-15.99,-17.03,-16.93,0,*6B
1483394769.25,24200,10.19,72366.3,-15.99,-17.03,-17.03,0,*60
1483394770.52,24201,10.25,72366.3,-15.99,-17.07,-17.03,0,*65
1483394771.8,24202,10.19,72358.3,-15.99,-17.17,-17.07,0,*63
1483394773.08,24203,10.25,72358.3,-15.99,-17.07,-17.07,0,*63
1483394774.35,24204,10.25,72356.3,-15.99,-17.07,-17.17,0,*65
1483394775.63,24205,10.25,72364.0,-15.99,-17.17,-17.07,0,*64
1483394776.9,24206,10.19,72360.5,-15.99,-17.07,-17.07,0,*66
1483394778.11,24207,10.25,72366.3,-15.99,-16.93,-16.93,0,*67
1483394779.32,24208,10.25,72370.0,-15.99,-16.93,-16.93,0,*68
1483394780.53,24209,10.25,72380.3,-15.99,-16.93,-16.93,0,*69
1483394781.76,24210,10.25,72374.8,-15.97,-16.93,-16.93,0,*6F
1483394783.0,24211,10.25,72364.0,-15.99,-17.03,-16.93,0,*68
1483394784.28,24212,10.25,72360.5,-15.99,-17.17,-17.03,0,*66
1483394785.56,24213,10.19,72360.8,-15.99,-17.17,-17.07,0,*63
1483394786.85,24214,10.19,72358.3,-16.01,-17.11,-17.11,0,*67
1483394788.14,24215,10.25,72360.0,-16.01,-17.21,-17.11,0,*65
1483394789.43,24216,10.19,72354.3,-16.01,-17.11,-17.11,0,*65
1483394790.72,24217,10.25,72372.0,-16.01,-17.11,-17.11,0,*64
1483394792.02,24218,10.25,72366.3,-16.01,-17.07,-17.07,0,*6B
1483394793.26,24219,10.25,72360.3,-16.05,-16.97,-16.97,0,*6E
1483394794.53,24220,10.25,72354.5,-16.05,-16.97,-17.07,0,*6C
1483394795.83,24221,10.25,72346.0,-16.01,-17.07,-17.07,0,*61
1483394797.07,24222,10.25,72330.0,-16.01,-16.97,-16.97,0,*62
1483394798.31,24223,10.25,72328.0,-16.05,-16.97,-16.97,0,*67
1483394799.54,24224,10.19,72336.5,-16.01,-16.89,-16.93,0,*6F
1483394800.77,24225,10.25,72350.0,-16.05,-16.93,-16.89,0,*6A
1483394802.01,24226,10.19,72356.5,-16.01,-16.89,-16.89,0,*66
1483394803.25,24227,10.25,72360.3,-16.01,-16.89,-16.89,0,*67
1483394804.48,24228,10.25,72356.8,-16.01,-16.93,-16.89,0,*63
1483394805.72,24229,10.25,72352.3,-16.01,-16.89,-16.89,0,*69
1483394806.96,24230,10.19,72354.8,-16.01,-16.89,-16.89,0,*61
1483394808.2,24231,10.19,72352.8,-16.05,-16.89,-16.79,0,*6B
1483394809.44,24232,10.25,72346.5,-16.05,-16.75,-16.75,0,*67
1483394810.69,24233,10.25,72374.5,-16.01,-16.79,-16.79,0,*62
1483394811.93,24234,10.25,72366.8,-16.01,-16.89,-16.79,0,*6A
1483394813.16,24235,10.25,72360.0,-16.01,-16.93,-16.89,0,*6F
1483394814.38,24236,10.25,72362.3,-15.99,-16.89,-16.93,0,*6E
1483394815.61,24237,10.25,72356.3,-16.05,-16.93,-16.93,0,*62
1483394816.84,24238,10.25,72370.3,-16.01,-16.93,-16.93,0,*69
1483394818.07,24239,10.25,72366.3,-16.01,-16.97,-16.93,0,*6C
1483394819.34,24240,10.19,72364.0,-16.05,-17.07,-16.93,0,*6E
1483394820.6,24241,10.19,72364.0,-16.05,-17.07,-16.93,0,*6F
1483394821.89,24242,10.19,72364.0,-16.05,-17.07,-17.07,0,*60
1483394823.13,24243,10.25,72364.5,-16.01,-16.97,-16.97,0,*65
1483394824.37,24244,10.25,72366.3,-16.05,-16.97,-16.97,0,*66
1483394825.6,24245,10.25,72362.8,-16.05,-16.97,-16.93,0,*63
1483394826.84,24246,10.25,72358.8,-16.01,-16.97,-16.93,0,*64
1483394828.07,24247,10.25,72356.5,-16.05,-16.93,-16.93,0,*65
1483394829.3,24248,10.19,72344.8,-16.05,-16.93,-16.93,0,*6A
1483394830.53,24249,10.19,72344.0,-16.05,-16.97,-16.93,0,*6F
1483394831.8,24250,10.19,72370.3,-16.01,-17.07,-16.97,0,*6F
1483394833.04,24251,10.25,72378.8,-16.01,-16.97,-16.97,0,*66
1483394834.28,24252,10.19,72368.0,-16.01,-16.97,-16.97,0,*65
1483394835.52,24253,10.19,72366.5,-16.01,-16.97,-16.97,0,*64
1483394836.76,24254,10.19,72356.3,-16.05,-16.97,-16.97,0,*67
1483394838.05,24255,10.19,72356.0,-16.05,-17.07,-17.07,0,*66
1483394839.29,24256,10.25,72362.3,-16.05,-16.97,-16.97,0,*65
1483394840.53,24257,10.19,72352.8,-16.05,-16.97,-16.97,0,*64
1483394841.76,24258,10.19,72354.8,-16.05,-16.97,-16.97,0,*6B
1483394842.98,24259,10.25,72360.5,-16.07,-16.97,-16.97,0,*68
1483394844.21,24260,10.19,72364.3,-16.05,-16.93,-16.89,0,*6B
1483394845.44,24261,10.25,72372.0,-16.05,-16.93,-16.93,0,*61
1483394846.67,24262,10.19,72368.5,-16.05,-16.93,-16.89,0,*69
1483394847.9,24263,10.19,72374.5,-16.05,-16.89,-16.89,0,*63
1483394849.12,24264,10.25,72374.0,-16.07,-16.93,-16.97,0,*62
1483394850.33,24265,10.19,72372.8,-16.07,-16.93,-16.93,0,*67
1483394851.56,24266,10.19,72378.5,-16.05,-16.89,-16.93,0,*6D
1483394852.79,24267,10.25,72372.5,-16.05,-16.93,-16.93,0,*67
1483394854.02,24268,10.19,72368.3,-16.05,-16.93,-16.93,0,*68
1483394855.25,24269,10.19,72370.5,-16.05,-16.93,-16.93,0,*69
1483394856.48,24270,10.19,72370.5,-16.05,-16.93,-16.89,0,*6A
1483394857.71,24271,10.25,72374.3,-16.05,-16.89,-16.89,0,*60
1483394858.95,24272,10.25,72370.5,-16.05,-16.89,-16.93,0,*68
1483394860.18,24273,10.19,72370.5,-16.05,-16.93,-16.79,0,*66
1483394861.42,24274,10.25,72368.0,-16.05,-16.89,-16.89,0,*65
1483394862.66,24275,10.25,72374.8,-16.01,-16.79,-16.93,0,*64
1483394863.89,24276,10.25,72352.0,-16.05,-16.75,-16.93,0,*6F
1483394865.13,24277,10.25,72340.0,-16.01,-16.93,-16.93,0,*62
1483394866.36,24278,10.25,72350.0,-16.05,-16.93,-16.93,0,*69
1483394867.58,24279,10.19,72348.5,-16.05,-16.93,-16.93,0,*68
1483394868.82,24280,10.25,72358.0,-16.05,-16.97,-16.97,0,*6E
1483394870.06,24281,10.25,72354.5,-16.05,-16.97,-16.97,0,*6F
1483394871.35,24282,10.19,72348.3,-16.09,-17.03,-17.03,0,*60
1483394872.59,24283,10.25,72358.3,-16.05,-16.97,-16.97,0,*6D
1483394873.83,24284,10.19,72354.3,-16.05,-16.97,-16.97,0,*6A
1483394875.1,24285,10.25,72348.5,-16.05,-16.97,-17.07,0,*63
1483394876.39,24286,10.19,72350.5,-16.05,-17.07,-17.07,0,*68
1483394877.68,24287,10.25,72350.3,-16.05,-17.21,-17.21,0,*69
1483394878.95,24288,10.25,72332.0,-16.07,-17.11,-17.17,0,*62
1483394880.23,24289,10.25,72340.5,-16.09,-17.11,-17.17,0,*6D
1483394881.52,24290,10.19,72348.5,-16.09,-17.11,-17.11,0,*63
1483394882.81,24291,10.25,72354.0,-16.09,-17.11,-17.17,0,*64
1483394884.08,24292,10.25,72350.8,-16.07,-17.11,-17.03,0,*6C
1483394885.35,24293,10.19,72344.0,-16.07,-17.11,-17.03,0,*6D
1483394886.64,24294,10.19,72346.0,-16.09,-17.03,-17.03,0,*67
1483394887.91,24295,10.25,72350.5,-16.07,-17.11,-17.03,0,*6B
1483394889.17,24296,10.19,72346.3,-16.07,-17.11,-17.03,0,*68
1483394890.47,24297,10.19,72354.5,-16.09,-17.17,-17.03,0,*61